Regional Weather Roundup
Issued by NWS Bismarck, ND

Home | Current Version | Previous Version | Text Only | Print | Product List | Glossary On
Versions: 1 2 3 4 5 6 7 8 9 10 11 12 13 14 15 16 17 18 19 20 21 22 23 24 25 26 27 28 29 30 31 32 33 34 35 36 37 38 39 40 41 42 43 44 45 46 47 48 49 50
000
ASUS43 KBIS 210001
RWRBIS

NWR BROADCAST TEXT
NATIONAL WEATHER SERVICE BISMARCK ND
700 PM CDT MON APR 20 2015

NOTE: "FAIR" INDICATES FEW OR NO CLOUDS BELOW 12,000 FEET WITH NO
SIGNIFICANT WEATHER AND/OR OBSTRUCTIONS TO VISIBILITY.


CITY           SKY/WX    TMP DP  RH WIND       PRES   REMARKS
WILLISTON      SUNNY     53  14  21 NW21G30   29.83S
MINOT          SUNNY     49   5  16 NW22G32   29.75R
MINOT AFB      SUNNY     50   8  18 NW25G33   29.74R
BISMARCK       SUNNY     51   3  14 NW24G40   29.76R
DICKINSON      PTSUNNY   49  13  23 NW23G30   29.80S
GARRISON         N/A     50  10  20 N31G40    29.75S
HETTINGER ARPT CLOUDY    48  14  25 NW22G30   29.83R
JAMESTOWN      CLOUDY    43  24  47 N22G33    29.67R
CARRINGTON     CLOUDY    41  25  52 N17G35    29.70R
HAZEN          FAIR      50   1  13 NW24G35   29.78R
OAKES            N/A     43  25  49 NW30G38   29.66S
STANLEY        FAIR      48   7  18 NW20G29   29.80R
$$

CITY           SKY/WX    TMP DP  RH WIND       PRES   REMARKS
GRAND FORKS    CLOUDY    37  30  75 NW22G30   29.62R
GRAND FORKS AF CLOUDY    37  29  74 N16G22    29.63R
DEVILS LAKE    CLOUDY    41  27  56 N24G30    29.67S
FARGO          CLOUDY    38  34  85 NW23      29.62S
CANDO          CLOUDY    41  27  56 N28G35    29.69S
CAVALIER       CLOUDY    36  30  80 N18G31    29.64R
GRAFTON        DRIZZLE   36  34  93 NW20G28   29.64R
GWINNER        CLOUDY    43  28  56 NW22      29.68R
LANGDON        CLOUDY    37  28  70 N23G32    29.65R
ROLLA          FAIR      39  27  60 N25       29.70R
WALHALLA       CLOUDY    37  30  75 NW20G30   29.65R
$$

CITY           SKY/WX    TMP DP  RH WIND       PRES   REMARKS
ABERDEEN       SUNNY     51  10  19 NW28G39   29.70S
MOBRIDGE       SUNNY     53   2  12 N24G35    29.73S
BUFFALO          N/A     49  19  30 N21       29.78R
RAPID CITY     SUNNY     52  21  29 N17G29    29.83S
GLASGOW        CLOUDY    58  16  19 N13       29.83F
SIDNEY         SUNNY     54  14  20 NW16      29.85S
WOLF POINT     CLOUDY    58  20  22 NW10      29.84F
GLENDIVE       MOSUNNY   54  19  26 N17G23    29.87S
MILES CITY     SUNNY     57  18  21 N14       29.86S
BAKER          PTSUNNY   49  21  33 N16       29.87R
$$

CITY           SKY/WX    TMP DP  RH WIND       PRES   REMARKS
BILLINGS       MOSUNNY   62  19  19 N9        29.85F
GREAT FALLS    MOSUNNY   65  23  20 W7        29.84F
$$



USA.gov is the U.S. government's official web portal to all federal, state and local government web resources and services.